| time (UTC) | temp F | wind direction | speed MPH | gust MPH | rain 1hr in | rain 24hr in | rain mn in | humidity % | barometer mb |
| 20260906212527 | 71 | 133 | 3.0 | 6.0 | 0.10 | 0.10 | 0.10 | 88 | 1018.4 |
| 20260906212030 | 71 | 198 | 2.0 | 7.0 | 0.04 | 0.04 | 0.04 | 87 | 1018.7 |
| 20260906211545 | 72 | 200 | 3.0 | 7.0 | 0.04 | 0.04 | 0.04 | 87 | 1018.7 |
| 20260906211028 | 72 | 138 | 3.0 | 12.0 | 0.04 | 0.04 | 0.04 | 86 | 1018.8 |
| 20260906210529 | 72 | 114 | 3.0 | 14.0 | 0.03 | 0.03 | 0.03 | 86 | 1018.6 |
| 20260906210053 | 72 | 183 | 4.0 | 14.0 | 0.00 | 0.00 | 0.00 | 85 | 1018.4 |
| 20260906205531 | 72 | 91 | 3.0 | 6.0 | 0.00 | 0.00 | 0.00 | 85 | 1018.4 |
| 20260906205028 | 73 | 176 | 0.0 | 5.0 | 0.00 | 0.00 | 0.00 | 85 | 1018.1 |
| 20260906204544 | 73 | 0 | 1.0 | 5.0 | 0.00 | 0.00 | 0.00 | 84 | 1018.2 |
| 20260906204028 | 74 | 0 | 1.0 | 4.0 | 0.00 | 0.00 | 0.00 | 83 | 1018.2 |
| 20260906203529 | 74 | 239 | 1.0 | 4.0 | 0.00 | 0.00 | 0.00 | 81 | 1018.2 |
| 20260906203043 | 74 | 176 | 1.0 | 6.0 | 0.00 | 0.00 | 0.00 | 81 | 1018.4 |
| 20260906202528 | 74 | 234 | 2.0 | 8.0 | 0.00 | 0.00 | 0.00 | 79 | 1018.5 |
| 20260906202028 | 75 | 49 | 2.0 | 8.0 | 0.00 | 0.00 | 0.00 | 78 | 1018.4 |
| 20260906201552 | 75 | 216 | 2.0 | 8.0 | 0.00 | 0.00 | 0.00 | 79 | 1018.6 |
| 20260906201028 | 75 | 214 | 2.0 | 11.0 | 0.00 | 0.00 | 0.00 | 78 | 1018.4 |
| 20260906200528 | 75 | 161 | 4.0 | 11.0 | 0.00 | 0.00 | 0.00 | 77 | 1018.3 |
| 20260906200046 | 76 | 182 | 1.0 | 7.0 | 0.00 | 0.00 | 0.00 | 77 | 1018.4 |
| 20260906195528 | 76 | 165 | 1.0 | 10.0 | 0.00 | 0.00 | 0.00 | 77 | 1018.4 |
| 20260906195027 | 76 | 157 | 4.0 | 17.0 | 0.00 | 0.00 | 0.00 | 77 | 1018.5 |
| 20260906194544 | 76 | 150 | 4.0 | 17.0 | 0.00 | 0.00 | 0.00 | 76 | 1018.2 |
| 20260906194028 | 77 | 122 | 2.0 | 10.0 | 0.00 | 0.00 | 0.00 | 76 | 1018.1 |
| 20260906193528 | 77 | 171 | 3.0 | 10.0 | 0.00 | 0.00 | 0.00 | 75 | 1018.2 |
| 20260906193045 | 78 | 148 | 4.0 | 11.0 | 0.00 | 0.00 | 0.00 | 75 | 1017.8 |
| 20260906192528 | 78 | 180 | 4.0 | 12.0 | 0.00 | 0.00 | 0.00 | 74 | 1017.8 |
| 20260906192028 | 78 | 0 | 3.0 | 12.0 | 0.00 | 0.00 | 0.00 | 74 | 1017.7 |
| 20260906191549 | 79 | 161 | 3.0 | 9.0 | 0.00 | 0.00 | 0.00 | 73 | 1017.8 |
| 20260906191028 | 79 | 84 | 3.0 | 11.0 | 0.00 | 0.00 | 0.00 | 72 | 1017.6 |
| 20260906190531 | 79 | 144 | 4.0 | 11.0 | 0.00 | 0.00 | 0.00 | 72 | 1017.6 |
| 20260906190054 | 80 | 90 | 4.0 | 14.0 | 0.00 | 0.00 | 0.00 | 71 | 1017.7 |
| 20260906185528 | 80 | 193 | 4.0 | 14.0 | 0.00 | 0.00 | 0.00 | 70 | 1017.4 |
| 20260906185028 | 81 | 111 | 3.0 | 10.0 | 0.00 | 0.00 | 0.00 | 69 | 1017.5 |
| 20260906184548 | 81 | 188 | 3.0 | 10.0 | 0.00 | 0.00 | 0.00 | 70 | 1017.4 |
| 20260906184028 | 81 | 88 | 4.0 | 9.0 | 0.00 | 0.00 | 0.00 | 70 | 1017.5 |
| 20260906183528 | 81 | 154 | 4.0 | 9.0 | 0.00 | 0.00 | 0.00 | 70 | 1017.7 |
| 20260906183049 | 81 | 193 | 3.0 | 11.0 | 0.00 | 0.00 | 0.00 | 69 | 1017.7 |
| 20260906182527 | 81 | 187 | 4.0 | 11.0 | 0.00 | 0.00 | 0.00 | 69 | 1017.7 |
| 20260906182028 | 82 | 182 | 3.0 | 10.0 | 0.00 | 0.00 | 0.00 | 68 | 1017.7 |
| 20260906181548 | 82 | 180 | 4.0 | 10.0 | 0.00 | 0.00 | 0.00 | 67 | 1017.6 |
| 20260906181028 | 83 | 131 | 4.0 | 10.0 | 0.00 | 0.00 | 0.00 | 67 | 1017.7 |
| 20260906180529 | 83 | 184 | 3.0 | 10.0 | 0.00 | 0.00 | 0.00 | 67 | 1017.8 |
| 20260906180050 | 83 | 192 | 2.0 | 9.0 | 0.00 | 0.00 | 0.00 | 67 | 1017.8 |
| 20260906175528 | 82 | 179 | 2.0 | 9.0 | 0.00 | 0.00 | 0.00 | 67 | 1017.8 |
| 20260906175028 | 82 | 172 | 3.0 | 10.0 | 0.00 | 0.00 | 0.00 | 68 | 1017.8 |
| 20260906174546 | 82 | 0 | 3.0 | 10.0 | 0.00 | 0.00 | 0.00 | 69 | 1017.8 |
| 20260906174029 | 83 | 111 | 2.0 | 7.0 | 0.00 | 0.00 | 0.00 | 68 | 1017.8 |
| 20260906173527 | 82 | 140 | 3.0 | 10.0 | 0.00 | 0.00 | 0.00 | 68 | 1017.8 |
| 20260906173059 | 82 | 205 | 3.0 | 10.0 | 0.00 | 0.00 | 0.00 | 70 | 1017.8 |
| 20260906172530 | 82 | 168 | 4.0 | 8.0 | 0.00 | 0.00 | 0.00 | 69 | 1017.7 |
| 20260906172027 | 82 | 153 | 2.0 | 8.0 | 0.00 | 0.00 | 0.00 | 69 | 1017.8 |
| 20260906171555 | 81 | 202 | 3.0 | 8.0 | 0.00 | 0.00 | 0.00 | 70 | 1017.7 |
| 20260906171028 | 81 | 194 | 2.0 | 8.0 | 0.00 | 0.00 | 0.00 | 70 | 1017.8 |
| 20260906170531 | 81 | 240 | 2.0 | 10.0 | 0.00 | 0.00 | 0.00 | 71 | 1017.7 |
| 20260906170044 | 80 | 109 | 3.0 | 10.0 | 0.00 | 0.00 | 0.00 | 71 | 1017.7 |
| 20260906165529 | 81 | 138 | 4.0 | 7.0 | 0.00 | 0.00 | 0.00 | 71 | 1017.9 |
| 20260906165031 | 80 | 194 | 3.0 | 10.0 | 0.00 | 0.00 | 0.00 | 72 | 1018.0 |
| 20260906164544 | 79 | 194 | 4.0 | 10.0 | 0.00 | 0.00 | 0.00 | 72 | 1018.2 |
| 20260906164028 | 80 | 205 | 4.0 | 12.0 | 0.00 | 0.00 | 0.00 | 72 | 1018.2 |
| 20260906163528 | 79 | 213 | 2.0 | 12.0 | 0.00 | 0.00 | 0.00 | 73 | 1018.3 |
| 20260906163043 | 79 | 38 | 5.0 | 12.0 | 0.00 | 0.00 | 0.00 | 73 | 1018.4 |
| 20260906162529 | 79 | 217 | 1.0 | 6.0 | 0.00 | 0.00 | 0.00 | 73 | 1018.3 |
| 20260906162028 | 78 | 127 | 2.0 | 8.0 | 0.00 | 0.00 | 0.00 | 75 | 1018.4 |
| 20260906161553 | 77 | 82 | 2.0 | 8.0 | 0.00 | 0.00 | 0.00 | 75 | 1018.6 |
| 20260906161027 | 77 | 121 | 3.0 | 8.0 | 0.00 | 0.00 | 0.00 | 75 | 1018.6 |
| 20260906160527 | 77 | 132 | 3.0 | 8.0 | 0.00 | 0.00 | 0.00 | 75 | 1018.5 |
| 20260906160049 | 77 | 205 | 3.0 | 8.0 | 0.00 | 0.00 | 0.00 | 75 | 1018.4 |
| 20260906155528 | 77 | 165 | 3.0 | 10.0 | 0.00 | 0.00 | 0.00 | 75 | 1018.4 |
| 20260906155027 | 78 | 225 | 3.0 | 10.0 | 0.00 | 0.00 | 0.00 | 75 | 1018.4 |
| 20260906154545 | 78 | 178 | 2.0 | 8.0 | 0.00 | 0.00 | 0.00 | 74 | 1018.4 |
| 20260906154028 | 78 | 145 | 1.0 | 10.0 | 0.00 | 0.00 | 0.00 | 75 | 1018.4 |
| 20260906153529 | 77 | 171 | 2.0 | 11.0 | 0.00 | 0.00 | 0.00 | 76 | 1018.5 |
| 20260906153045 | 77 | 165 | 5.0 | 14.0 | 0.00 | 0.00 | 0.00 | 76 | 1018.5 |
| 20260906152529 | 77 | 176 | 4.0 | 14.0 | 0.00 | 0.00 | 0.00 | 77 | 1018.6 |
| 20260906152027 | 76 | 189 | 3.0 | 7.0 | 0.00 | 0.00 | 0.00 | 78 | 1018.7 |
| 20260906151552 | 76 | 181 | 3.0 | 7.0 | 0.00 | 0.00 | 0.00 | 79 | 1018.7 |
| 20260906151028 | 75 | 134 | 1.0 | 6.0 | 0.00 | 0.00 | 0.00 | 80 | 1018.8 |
| 20260906150529 | 74 | 205 | 2.0 | 7.0 | 0.00 | 0.00 | 0.00 | 80 | 1018.8 |
| 20260906150048 | 73 | 162 | 2.0 | 7.0 | 0.00 | 0.00 | 0.00 | 82 | 1018.9 |
| 20260906145528 | 73 | 63 | 2.0 | 7.0 | 0.00 | 0.00 | 0.00 | 82 | 1018.9 |
| 20260906145029 | 72 | 159 | 2.0 | 8.0 | 0.00 | 0.00 | 0.00 | 83 | 1018.9 |
| 20260906144547 | 73 | 175 | 1.0 | 9.0 | 0.00 | 0.00 | 0.00 | 82 | 1018.9 |
| 20260906144030 | 73 | 161 | 3.0 | 9.0 | 0.00 | 0.00 | 0.00 | 83 | 1018.9 |
| 20260906143528 | 72 | 211 | 2.0 | 6.0 | 0.00 | 0.00 | 0.00 | 85 | 1018.9 |
| 20260906143043 | 71 | 200 | 2.0 | 7.0 | 0.00 | 0.00 | 0.00 | 86 | 1018.9 |
| 20260906142527 | 71 | 167 | 2.0 | 7.0 | 0.00 | 0.00 | 0.00 | 85 | 1018.8 |
| 20260906142028 | 71 | 168 | 3.0 | 7.0 | 0.00 | 0.00 | 0.00 | 86 | 1018.9 |
| 20260906141553 | 70 | 281 | 2.0 | 8.0 | 0.00 | 0.00 | 0.00 | 87 | 1018.7 |
| 20260906141029 | 70 | 179 | 2.0 | 8.0 | 0.00 | 0.00 | 0.00 | 89 | 1018.6 |
| 20260906140528 | 69 | 196 | 3.0 | 8.0 | 0.00 | 0.00 | 0.00 | 90 | 1018.4 |
| 20260906140053 | 69 | 170 | 2.0 | 7.0 | 0.00 | 0.00 | 0.00 | 91 | 1018.4 |
| 20260906135528 | 68 | 200 | 2.0 | 8.0 | 0.00 | 0.00 | 0.00 | 91 | 1018.4 |
| 20260906135027 | 68 | 196 | 3.0 | 9.0 | 0.00 | 0.00 | 0.00 | 92 | 1018.4 |
| 20260906134545 | 68 | 229 | 2.0 | 11.0 | 0.00 | 0.00 | 0.00 | 92 | 1018.4 |
| 20260906134028 | 67 | 74 | 3.0 | 11.0 | 0.00 | 0.00 | 0.00 | 92 | 1018.4 |
| 20260906133528 | 67 | 194 | 1.0 | 5.0 | 0.00 | 0.00 | 0.00 | 92 | 1018.4 |
| 20260906133057 | 67 | 93 | 2.0 | 6.0 | 0.00 | 0.00 | 0.00 | 93 | 1018.3 |
| 20260906132529 | 67 | 205 | 2.0 | 6.0 | 0.00 | 0.00 | 0.00 | 92 | 1018.3 |
| 20260906132028 | 66 | 132 | 1.0 | 5.0 | 0.00 | 0.00 | 0.00 | 93 | 1018.3 |
| 20260906131553 | 66 | 171 | 1.0 | 4.0 | 0.00 | 0.00 | 0.00 | 93 | 1018.4 |
| 20260906131027 | 66 | 160 | 1.0 | 4.0 | 0.00 | 0.00 | 0.00 | 92 | 1018.4 |
| 20260906130527 | 66 | 224 | 1.0 | 6.0 | 0.00 | 0.00 | 0.00 | 92 | 1018.3 |
| 20260906130114 | 66 | 219 | 0.0 | 6.0 | 0.00 | 0.00 | 0.00 | 92 | 1018.4 |
| 20260906125527 | 66 | 203 | 1.0 | 4.0 | 0.00 | 0.00 | 0.00 | 92 | 1018.2 |
| 20260906125028 | 66 | 211 | 1.0 | 7.0 | 0.00 | 0.00 | 0.00 | 92 | 1018.1 |
| 20260906124549 | 66 | 198 | 2.0 | 7.0 | 0.00 | 0.00 | 0.00 | 92 | 1018.2 |
| 20260906124028 | 65 | 201 | 1.0 | 6.0 | 0.00 | 0.00 | 0.00 | 92 | 1018.2 |
| 20260906123528 | 65 | 185 | 2.0 | 6.0 | 0.00 | 0.00 | 0.00 | 92 | 1018.1 |
| 20260906123043 | 65 | 152 | 2.0 | 6.0 | 0.00 | 0.00 | 0.00 | 92 | 1018.0 |
| 20260906122529 | 65 | 0 | 1.0 | 6.0 | 0.00 | 0.00 | 0.00 | 92 | 1018.0 |
| 20260906122029 | 65 | 243 | 1.0 | 6.0 | 0.00 | 0.00 | 0.00 | 92 | 1018.0 |
| 20260906121606 | 65 | 159 | 1.0 | 4.0 | 0.00 | 0.00 | 0.00 | 92 | 1018.0 |
| 20260906121027 | 65 | 207 | 1.0 | 5.0 | 0.00 | 0.00 | 0.00 | 92 | 1018.0 |
| 20260906120528 | 65 | 0 | 2.0 | 5.0 | 0.00 | 0.00 | 0.00 | 92 | 1017.9 |
| 20260906120044 | 65 | 147 | 1.0 | 4.0 | 0.00 | 0.00 | 0.00 | 92 | 1017.8 |
| 20260906115528 | 65 | 144 | 1.0 | 4.0 | 0.00 | 0.00 | 0.00 | 92 | 1017.8 |
| 20260906115027 | 65 | 202 | 1.0 | 5.0 | 0.00 | 0.00 | 0.00 | 92 | 1017.8 |
| 20260906114544 | 65 | 0 | 1.0 | 5.0 | 0.00 | 0.00 | 0.00 | 92 | 1017.8 |
| 20260906114028 | 65 | 163 | 1.0 | 5.0 | 0.00 | 0.00 | 0.00 | 92 | 1017.9 |
| 20260906113529 | 65 | 171 | 1.0 | 5.0 | 0.00 | 0.00 | 0.00 | 92 | 1018.0 |
| 20260906113050 | 65 | 108 | 0.0 | 4.0 | 0.00 | 0.00 | 0.00 | 92 | 1018.0 |
| 20260906112528 | 65 | 0 | 0.0 | 3.0 | 0.00 | 0.00 | 0.00 | 91 | 1018.1 |
| 20260906112028 | 65 | 155 | 0.0 | 4.0 | 0.00 | 0.00 | 0.00 | 92 | 1018.0 |
| 20260906111542 | 65 | 201 | 1.0 | 4.0 | 0.00 | 0.00 | 0.00 | 91 | 1018.2 |
| 20260906111027 | 65 | 172 | 0.0 | 3.0 | 0.00 | 0.00 | 0.00 | 92 | 1018.2 |
| 20260906110528 | 65 | 173 | 1.0 | 3.0 | 0.00 | 0.00 | 0.00 | 92 | 1018.2 |
| 20260906110052 | 65 | 0 | 0.0 | 3.0 | 0.00 | 0.00 | 0.00 | 91 | 1018.1 |
| 20260906105527 | 65 | 181 | 0.0 | 3.0 | 0.00 | 0.00 | 0.00 | 91 | 1018.2 |
| 20260906105028 | 65 | 215 | 0.0 | 3.0 | 0.00 | 0.00 | 0.00 | 91 | 1018.0 |
| 20260906104548 | 65 | 0 | 0.0 | 2.0 | 0.00 | 0.00 | 0.00 | 91 | 1018.1 |
| 20260906104028 | 65 | 183 | 0.0 | 1.0 | 0.00 | 0.00 | 0.00 | 91 | 1018.2 |
| 20260906103527 | 65 | 0 | 0.0 | 1.0 | 0.00 | 0.00 | 0.00 | 91 | 1018.2 |
| 20260906103052 | 65 | 0 | 0.0 | 2.0 | 0.00 | 0.00 | 0.00 | 91 | 1018.1 |
| 20260906102531 | 66 | 0 | 0.0 | 2.0 | 0.00 | 0.00 | 0.00 | 91 | 1018.2 |
| 20260906102028 | 66 | 0 | 0.0 | 2.0 | 0.00 | 0.00 | 0.00 | 91 | 1018.0 |
| 20260906101546 | 66 | 0 | 0.0 | 2.0 | 0.00 | 0.00 | 0.00 | 91 | 1018.0 |
| 20260906101031 | 66 | 0 | 0.0 | 2.0 | 0.00 | 0.00 | 0.00 | 91 | 1018.0 |
| 20260906100528 | 66 | 0 | 0.0 | 5.0 | 0.00 | 0.00 | 0.00 | 91 | 1018.1 |
| 20260906100052 | 66 | 0 | 1.0 | 5.0 | 0.00 | 0.00 | 0.00 | 91 | 1018.1 |
| 20260906095529 | 66 | 172 | 1.0 | 3.0 | 0.00 | 0.00 | 0.00 | 91 | 1018.0 |
| 20260906095029 | 66 | 184 | 1.0 | 4.0 | 0.00 | 0.00 | 0.00 | 91 | 1017.9 |
| 20260906094548 | 66 | 183 | 1.0 | 4.0 | 0.00 | 0.00 | 0.00 | 91 | 1017.8 |
| 20260906094028 | 66 | 0 | 0.0 | 4.0 | 0.00 | 0.00 | 0.00 | 91 | 1017.7 |
| 20260906093530 | 66 | 0 | 0.0 | 4.0 | 0.00 | 0.00 | 0.00 | 91 | 1017.7 |
| 20260906093052 | 66 | 168 | 0.0 | 5.0 | 0.00 | 0.00 | 0.00 | 91 | 1017.5 |
| 20260906092529 | 66 | 155 | 0.0 | 5.0 | 0.00 | 0.00 | 0.00 | 91 | 1017.4 |
| 20260906092029 | 66 | 207 | 1.0 | 4.0 | 0.00 | 0.00 | 0.00 | 91 | 1017.4 |
| 20260906091542 | 66 | 175 | 0.0 | 1.0 | 0.00 | 0.00 | 0.00 | 90 | 1017.3 |
| 20260906091030 | 66 | 161 | 0.0 | 4.0 | 0.00 | 0.00 | 0.00 | 90 | 1017.2 |
| 20260906090529 | 66 | 0 | 0.0 | 4.0 | 0.00 | 0.00 | 0.00 | 90 | 1017.2 |
| 20260906090055 | 66 | 148 | 0.0 | 1.0 | 0.00 | 0.00 | 0.00 | 90 | 1017.1 |
| 20260906085528 | 66 | 0 | 0.0 | 1.0 | 0.00 | 0.00 | 0.00 | 90 | 1017.2 |
| 20260906085028 | 66 | 154 | 0.0 | 2.0 | 0.00 | 0.00 | 0.00 | 90 | 1017.3 |
| 20260906084545 | 66 | 0 | 0.0 | 2.0 | 0.00 | 0.00 | 0.00 | 90 | 1017.2 |
| 20260906084029 | 66 | 0 | 0.0 | 2.0 | 0.00 | 0.00 | 0.00 | 90 | 1017.1 |
| 20260906083529 | 66 | 189 | 0.0 | 2.0 | 0.00 | 0.00 | 0.00 | 90 | 1017.1 |
| 20260906083044 | 67 | 0 | 0.0 | 1.0 | 0.00 | 0.00 | 0.00 | 89 | 1017.2 |
| 20260906082527 | 67 | 0 | 0.0 | 3.0 | 0.00 | 0.00 | 0.00 | 89 | 1017.2 |
| 20260906082029 | 67 | 0 | 0.0 | 3.0 | 0.00 | 0.00 | 0.00 | 89 | 1017.3 |
| 20260906081546 | 67 | 0 | 0.0 | 2.0 | 0.00 | 0.00 | 0.00 | 89 | 1017.3 |
| 20260906081028 | 67 | 0 | 0.0 | 1.0 | 0.00 | 0.00 | 0.00 | 88 | 1017.3 |
| 20260906080532 | 67 | 0 | 0.0 | 2.0 | 0.00 | 0.00 | 0.00 | 89 | 1017.2 |
| 20260906080056 | 67 | 0 | 0.0 | 2.0 | 0.00 | 0.00 | 0.00 | 89 | 1017.2 |
| 20260906075528 | 67 | 250 | 0.0 | 2.0 | 0.00 | 0.00 | 0.00 | 88 | 1017.2 |
| 20260906075028 | 68 | 59 | 0.0 | 3.0 | 0.00 | 0.00 | 0.00 | 88 | 1017.3 |
| 20260906074553 | 68 | 0 | 0.0 | 3.0 | 0.00 | 0.00 | 0.00 | 88 | 1017.3 |
| 20260906074027 | 68 | 344 | 1.0 | 3.0 | 0.00 | 0.00 | 0.00 | 88 | 1017.4 |
| 20260906073527 | 68 | 0 | 0.0 | 2.0 | 0.00 | 0.00 | 0.00 | 88 | 1017.4 |
| 20260906073043 | 68 | 290 | 0.0 | 3.0 | 0.00 | 0.00 | 0.00 | 88 | 1017.3 |
| 20260906072528 | 68 | 0 | 0.0 | 3.0 | 0.00 | 0.00 | 0.00 | 87 | 1017.3 |
| 20260906072029 | 68 | 0 | 0.0 | 2.0 | 0.00 | 0.00 | 0.00 | 87 | 1017.5 |
| 20260906071553 | 68 | 0 | 0.0 | 2.0 | 0.00 | 0.00 | 0.00 | 88 | 1017.5 |
| 20260906071029 | 68 | 0 | 0.0 | 2.0 | 0.00 | 0.00 | 0.00 | 87 | 1017.4 |
| 20260906070529 | 69 | 169 | 0.0 | 1.0 | 0.00 | 0.00 | 0.00 | 87 | 1017.5 |
| 20260906070055 | 69 | 0 | 0.0 | 1.0 | 0.00 | 0.00 | 0.00 | 87 | 1017.6 |
| 20260906065528 | 69 | 0 | 0.0 | 1.0 | 0.00 | 0.00 | 0.00 | 87 | 1017.7 |
| 20260906065028 | 69 | 0 | 0.0 | 1.0 | 0.00 | 0.00 | 0.00 | 87 | 1017.8 |
| 20260906064549 | 69 | 166 | 0.0 | 1.0 | 0.00 | 0.00 | 0.00 | 87 | 1017.9 |
| 20260906064027 | 69 | 28 | 0.0 | 1.0 | 0.00 | 0.00 | 0.00 | 87 | 1018.0 |
| 20260906063527 | 69 | 0 | 0.0 | 1.0 | 0.00 | 0.00 | 0.00 | 86 | 1018.1 |
| 20260906063045 | 69 | 0 | 0.0 | 1.0 | 0.00 | 0.00 | 0.00 | 87 | 1018.1 |
| 20260906062528 | 69 | 0 | 0.0 | 1.0 | 0.00 | 0.00 | 0.00 | 87 | 1018.0 |
| 20260906062027 | 68 | 0 | 0.0 | 1.0 | 0.00 | 0.00 | 0.00 | 87 | 1018.1 |
| 20260906061547 | 68 | 0 | 0.0 | 1.0 | 0.00 | 0.00 | 0.00 | 87 | 1018.0 |
| 20260906061028 | 68 | 0 | 0.0 | 1.0 | 0.00 | 0.00 | 0.00 | 87 | 1017.9 |
| 20260906060530 | 68 | 0 | 0.0 | 1.0 | 0.00 | 0.00 | 0.00 | 86 | 1017.9 |
| 20260906060100 | 68 | 0 | 0.0 | 2.0 | 0.00 | 0.00 | 0.00 | 86 | 1017.8 |
| 20260906055528 | 69 | 0 | 0.0 | 2.0 | 0.00 | 0.00 | 0.00 | 86 | 1017.7 |
| 20260906055029 | 69 | 0 | 0.0 | 1.0 | 0.00 | 0.00 | 0.00 | 86 | 1017.7 |
| 20260906054552 | 69 | 0 | 0.0 | 2.0 | 0.00 | 0.00 | 0.00 | 86 | 1017.7 |
| 20260906054029 | 69 | 182 | 0.0 | 2.0 | 0.00 | 0.00 | 0.00 | 86 | 1017.7 |
| 20260906053530 | 69 | 0 | 0.0 | 1.0 | 0.00 | 0.00 | 0.00 | 86 | 1017.8 |
| 20260906053044 | 69 | 223 | 0.0 | 2.0 | 0.00 | 0.00 | 0.00 | 86 | 1017.7 |
| 20260906052528 | 69 | 0 | 0.0 | 2.0 | 0.00 | 0.00 | 0.00 | 86 | 1017.7 |
| 20260906052029 | 69 | 0 | 0.0 | 1.0 | 0.00 | 0.00 | 0.00 | 86 | 1017.7 |
| 20260906051543 | 69 | 0 | 0.0 | 2.0 | 0.00 | 0.00 | 0.00 | 86 | 1017.7 |
| 20260906051028 | 69 | 0 | 0.0 | 2.0 | 0.00 | 0.00 | 0.00 | 86 | 1017.7 |
| 20260906050531 | 69 | 0 | 0.0 | 4.0 | 0.00 | 0.00 | 0.00 | 86 | 1017.6 |
| 20260906050049 | 69 | 0 | 0.0 | 4.0 | 0.00 | 0.00 | 0.00 | 85 | 1017.6 |
| 20260906045532 | 69 | 158 | 0.0 | 2.0 | 0.00 | 0.00 | 0.00 | 85 | 1017.6 |
| 20260906045030 | 69 | 0 | 0.0 | 2.0 | 0.00 | 0.00 | 0.00 | 85 | 1017.6 |
| 20260906044549 | 69 | 0 | 0.0 | 2.0 | 0.00 | 0.00 | 0.00 | 85 | 1017.6 |
| 20260906044031 | 69 | 171 | 0.0 | 3.0 | 0.00 | 0.00 | 0.00 | 85 | 1017.7 |
| 20260906043528 | 69 | 183 | 1.0 | 3.0 | 0.00 | 0.00 | 0.00 | 84 | 1017.7 |
| 20260906043045 | 69 | 173 | 1.0 | 5.0 | 0.00 | 0.00 | 0.00 | 84 | 1017.6 |
| 20260906042528 | 69 | 121 | 1.0 | 5.0 | 0.00 | 0.00 | 0.00 | 84 | 1017.6 |
| 20260906042028 | 69 | 0 | 0.0 | 2.0 | 0.00 | 0.00 | 0.00 | 84 | 1017.7 |
| 20260906041544 | 69 | 0 | 0.0 | 4.0 | 0.00 | 0.00 | 0.00 | 84 | 1017.7 |
| 20260906041029 | 70 | 0 | 0.0 | 4.0 | 0.00 | 0.00 | 0.00 | 83 | 1017.7 |
| 20260906040527 | 70 | 0 | 1.0 | 4.0 | 0.00 | 0.00 | 0.00 | 83 | 1017.7 |
| 20260906040046 | 70 | 0 | 0.0 | 2.0 | 0.00 | 0.00 | 0.00 | 83 | 1017.9 |
| 20260906035529 | 70 | 0 | 0.0 | 2.0 | 0.00 | 0.00 | 0.00 | 83 | 1017.9 |
| 20260906035027 | 70 | 80 | 0.0 | 2.0 | 0.00 | 0.00 | 0.00 | 83 | 1018.0 |
| 20260906034556 | 70 | 0 | 0.0 | 2.0 | 0.00 | 0.00 | 0.00 | 83 | 1018.0 |
| 20260906034027 | 70 | 0 | 0.0 | 2.0 | 0.00 | 0.00 | 0.00 | 83 | 1017.9 |
| 20260906033527 | 70 | 0 | 0.0 | 3.0 | 0.00 | 0.00 | 0.00 | 83 | 1017.9 |
| 20260906033045 | 70 | 0 | 1.0 | 3.0 | 0.00 | 0.00 | 0.00 | 83 | 1017.9 |
| 20260906032528 | 70 | 0 | 0.0 | 3.0 | 0.00 | 0.00 | 0.00 | 82 | 1018.0 |
| 20260906032032 | 70 | 76 | 0.0 | 3.0 | 0.00 | 0.00 | 0.00 | 82 | 1017.9 |
| 20260906031554 | 70 | 290 | 0.0 | 2.0 | 0.00 | 0.00 | 0.00 | 82 | 1017.9 |
| 20260906031032 | 70 | 69 | 0.0 | 2.0 | 0.00 | 0.00 | 0.00 | 82 | 1017.7 |
| 20260906030527 | 70 | 0 | 0.0 | 3.0 | 0.00 | 0.00 | 0.00 | 81 | 1017.8 |
| 20260906030053 | 71 | 0 | 0.0 | 4.0 | 0.00 | 0.00 | 0.00 | 81 | 1017.8 |
| 20260906025527 | 71 | 0 | 1.0 | 5.0 | 0.00 | 0.00 | 0.00 | 81 | 1017.9 |
| 20260906025027 | 71 | 91 | 1.0 | 5.0 | 0.00 | 0.00 | 0.00 | 81 | 1017.9 |
| 20260906024545 | 71 | 5 | 2.0 | 5.0 | 0.00 | 0.00 | 0.00 | 81 | 1018.0 |
| 20260906024027 | 71 | 5 | 1.0 | 5.0 | 0.00 | 0.00 | 0.00 | 80 | 1018.0 |
| 20260906023528 | 71 | 38 | 1.0 | 5.0 | 0.00 | 0.00 | 0.00 | 80 | 1017.9 |
| 20260906023053 | 71 | 30 | 1.0 | 5.0 | 0.00 | 0.00 | 0.00 | 80 | 1018.0 |
| 20260906022527 | 72 | 11 | 1.0 | 5.0 | 0.00 | 0.00 | 0.00 | 80 | 1017.9 |
| 20260906022029 | 72 | 47 | 2.0 | 5.0 | 0.00 | 0.00 | 0.00 | 79 | 1017.9 |
| 20260906021547 | 72 | 10 | 1.0 | 5.0 | 0.00 | 0.00 | 0.00 | 79 | 1017.9 |
| 20260906021027 | 72 | 12 | 2.0 | 5.0 | 0.00 | 0.00 | 0.00 | 79 | 1017.7 |
| 20260906020528 | 72 | 11 | 1.0 | 4.0 | 0.00 | 0.00 | 0.00 | 79 | 1017.6 |
| 20260906020052 | 72 | 37 | 2.0 | 4.0 | 0.00 | 0.00 | 0.00 | 78 | 1017.6 |
| 20260906015527 | 73 | 18 | 2.0 | 3.0 | 0.00 | 0.00 | 0.00 | 78 | 1017.5 |
| 20260906015028 | 73 | 36 | 0.0 | 5.0 | 0.00 | 0.00 | 0.00 | 78 | 1017.7 |
| 20260906014549 | 73 | 29 | 1.0 | 5.0 | 0.00 | 0.00 | 0.00 | 77 | 1017.7 |
| 20260906014028 | 73 | 5 | 2.0 | 5.0 | 0.00 | 0.00 | 0.00 | 77 | 1017.5 |
| 20260906013529 | 74 | 55 | 2.0 | 5.0 | 0.00 | 0.00 | 0.00 | 77 | 1017.4 |
| 20260906013046 | 74 | 334 | 1.0 | 5.0 | 0.00 | 0.00 | 0.00 | 76 | 1017.2 |
| 20260906012528 | 74 | 61 | 2.0 | 4.0 | 0.00 | 0.00 | 0.00 | 76 | 1017.1 |
| 20260906012028 | 74 | 0 | 1.0 | 4.0 | 0.00 | 0.00 | 0.00 | 76 | 1017.0 |
| 20260906011543 | 75 | 34 | 2.0 | 4.0 | 0.00 | 0.00 | 0.00 | 75 | 1016.6 |
| 20260906011028 | 75 | 11 | 1.0 | 4.0 | 0.00 | 0.00 | 0.00 | 75 | 1016.4 |
| 20260906010528 | 75 | 360 | 0.0 | 3.0 | 0.00 | 0.00 | 0.00 | 74 | 1016.3 |
| 20260906010050 | 76 | 0 | 0.0 | 3.0 | 0.00 | 0.00 | 0.00 | 73 | 1016.3 |
| 20260906005527 | 76 | 47 | 1.0 | 3.0 | 0.00 | 0.00 | 0.00 | 73 | 1016.2 |
| 20260906005029 | 77 | 74 | 0.0 | 3.0 | 0.00 | 0.00 | 0.00 | 72 | 1016.1 |
| 20260906004542 | 77 | 0 | 0.0 | 3.0 | 0.00 | 0.00 | 0.00 | 72 | 1015.9 |
| 20260906004028 | 77 | 0 | 0.0 | 3.0 | 0.00 | 0.00 | 0.00 | 71 | 1015.8 |
| 20260906003528 | 78 | 0 | 0.0 | 4.0 | 0.00 | 0.00 | 0.00 | 70 | 1015.8 |
| 20260906003053 | 79 | 0 | 0.0 | 4.0 | 0.00 | 0.00 | 0.00 | 69 | 1015.7 |
| 20260906002528 | 79 | 0 | 1.0 | 4.0 | 0.00 | 0.00 | 0.00 | 69 | 1015.6 |
| 20260906002029 | 79 | 0 | 0.0 | 5.0 | 0.00 | 0.00 | 0.00 | 69 | 1015.6 |
| 20260906001551 | 79 | 281 | 1.0 | 7.0 | 0.00 | 0.00 | 0.00 | 68 | 1015.4 |
| 20260906001029 | 80 | 254 | 2.0 | 7.0 | 0.00 | 0.00 | 0.00 | 68 | 1015.3 |
| 20260906000529 | 80 | 220 | 0.0 | 4.0 | 0.00 | 0.00 | 0.00 | 67 | 1015.4 |
| 20260906000049 | 80 | 244 | 1.0 | 4.0 | 0.00 | 0.00 | 0.00 | 67 | 1015.4 |
| 20260905235528 | 80 | 0 | 1.0 | 6.0 | 0.00 | 0.00 | 0.00 | 67 | 1015.5 |
| 20260905235029 | 80 | 103 | 2.0 | 7.0 | 0.00 | 0.00 | 0.00 | 67 | 1015.4 |
| 20260905234545 | 81 | 100 | 2.0 | 7.0 | 0.00 | 0.00 | 0.00 | 66 | 1015.3 |
| 20260905234028 | 81 | 140 | 1.0 | 7.0 | 0.00 | 0.00 | 0.00 | 66 | 1015.4 |
| 20260905233532 | 81 | 194 | 2.0 | 7.0 | 0.00 | 0.00 | 0.00 | 66 | 1015.4 |
| 20260905233044 | 81 | 0 | 1.0 | 5.0 | 0.00 | 0.00 | 0.00 | 66 | 1015.2 |
| 20260905232528 | 81 | 90 | 2.0 | 5.0 | 0.00 | 0.00 | 0.00 | 65 | 1015.2 |
| 20260905232028 | 81 | 319 | 2.0 | 9.0 | 0.00 | 0.00 | 0.00 | 65 | 1015.1 |
| 20260905231551 | 81 | 340 | 2.0 | 9.0 | 0.00 | 0.00 | 0.00 | 64 | 1015.1 |
| 20260905231032 | 82 | 66 | 4.0 | 9.0 | 0.00 | 0.00 | 0.00 | 64 | 1015.2 |
| 20260905230528 | 82 | 227 | 2.0 | 10.0 | 0.00 | 0.00 | 0.00 | 63 | 1015.3 |
| 20260905230045 | 82 | 80 | 2.0 | 10.0 | 0.00 | 0.00 | 0.00 | 63 | 1015.4 |
| 20260905225528 | 82 | 17 | 3.0 | 10.0 | 0.00 | 0.00 | 0.00 | 62 | 1015.5 |
| 20260905225029 | 83 | 355 | 2.0 | 11.0 | 0.00 | 0.00 | 0.00 | 63 | 1015.6 |
| 20260905224544 | 83 | 76 | 4.0 | 11.0 | 0.00 | 0.00 | 0.00 | 63 | 1015.7 |
| 20260905224028 | 83 | 14 | 4.0 | 11.0 | 0.00 | 0.00 | 0.00 | 63 | 1015.7 |
| 20260905223530 | 83 | 56 | 3.0 | 11.0 | 0.00 | 0.00 | 0.00 | 63 | 1015.7 |
| 20260905223042 | 83 | 24 | 6.0 | 12.0 | 0.00 | 0.00 | 0.00 | 63 | 1015.6 |
| 20260905222529 | 83 | 69 | 5.0 | 12.0 | 0.00 | 0.00 | 0.00 | 62 | 1015.6 |
| 20260905222029 | 84 | 88 | 3.0 | 6.0 | 0.00 | 0.00 | 0.00 | 62 | 1015.7 |
| 20260905221547 | 84 | 0 | 2.0 | 9.0 | 0.00 | 0.00 | 0.00 | 62 | 1015.6 |
| 20260905221029 | 84 | 32 | 4.0 | 9.0 | 0.00 | 0.00 | 0.00 | 62 | 1015.6 |
| 20260905220528 | 84 | 282 | 2.0 | 9.0 | 0.00 | 0.00 | 0.00 | 62 | 1015.6 |
| 20260905220045 | 84 | 67 | 2.0 | 15.0 | 0.00 | 0.00 | 0.00 | 62 | 1015.6 |
| 20260905215529 | 84 | 148 | 3.0 | 15.0 | 0.00 | 0.00 | 0.00 | 61 | 1015.6 |
| 20260905215028 | 84 | 344 | 3.0 | 13.0 | 0.00 | 0.00 | 0.00 | 61 | 1015.6 |
| 20260905214549 | 84 | 29 | 6.0 | 13.0 | 0.00 | 0.00 | 0.00 | 61 | 1015.7 |
| 20260905214030 | 85 | 74 | 5.0 | 13.0 | 0.00 | 0.00 | 0.00 | 60 | 1015.6 |
| 20260905213529 | 85 | 61 | 3.0 | 11.0 | 0.00 | 0.00 | 0.00 | 60 | 1015.7 |
| 20260905213050 | 85 | 44 | 4.0 | 11.0 | 0.00 | 0.00 | 0.00 | 60 | 1015.7 |